Wisconsin Dells, Wisconsin, United States (53965)
Lat: 43.63N, Lon: 89.77W
Wx Zone: WIZ057
Local Info
Past Weather Observations for Friday, April 18, 2014

NOTE: This archive is for the closest National Weather Service station to Wisconsin Dells. Information may differ from the station used for current weather conditions.

Time Weather Temperature Dewpoint Humidity Pressure Winds Precip Visibility
23:55
Clear
36°F / 2°C 27°F / -3°C 70% 30.33 in
(1027 mb)
SE 9.2 mph
(SE 15 kph)
- 10SM
23:35
Clear
36°F / 2°C 28°F / -2°C 75% 30.36 in
(1028 mb)
SE 10.4 mph
(SE 17 kph)
- 10SM
23:15
Clear
37°F / 3°C 30°F / -1°C 75% 30.33 in
(1027 mb)
SE 11.5 mph
(SE 19 kph)
- 10SM
22:55
Clear
37°F / 3°C 30°F / -1°C 75% 30.33 in
(1027 mb)
ESE 6.9 mph
(ESE 11 kph)
- 10SM
22:35
Clear
39°F / 4°C 32°F / 0°C 75% 30.33 in
(1027 mb)
ESE 10.4 mph
(ESE 17 kph)
- 10SM
22:15
Clear
41°F / 5°C 32°F / 0°C 70% 30.33 in
(1027 mb)
ESE 13.8 mph
(ESE 22 kph)
- 10SM
21:55
Clear
43°F / 6°C 30°F / -1°C 61% 30.3 in
(1026 mb)
ESE 6.9 mph
(ESE 11 kph)
- 10SM
21:35
Clear
43°F / 6°C 30°F / -1°C 61% 30.3 in
(1026 mb)
E 6.9 mph
(E 11 kph)
- 10SM
21:15
Clear
45°F / 7°C 30°F / -1°C 57% 30.33 in
(1027 mb)
ESE 6.9 mph
(ESE 11 kph)
- 10SM
20:55
Clear
43°F / 6°C 30°F / -1°C 61% 30.33 in
(1027 mb)
E 9.2 mph
(E 15 kph)
- 10SM
20:35
Clear
45°F / 7°C 28°F / -2°C 53% 30.33 in
(1027 mb)
ESE 8.1 mph
(ESE 13 kph)
- 10SM
20:15
Clear
45°F / 7°C 27°F / -3°C 49% 30.33 in
(1027 mb)
ESE 5.8 mph
(ESE 9 kph)
- 10SM
19:55
Clear
45°F / 7°C 27°F / -3°C 49% 30.33 in
(1027 mb)
E 6.9 mph
(E 11 kph)
- 10SM
19:35
Clear
45°F / 7°C 27°F / -3°C 49% 30.3 in
(1026 mb)
E 5.8 mph
(E 9 kph)
- 10SM
19:15
Clear
46°F / 8°C 25°F / -4°C 43% 30.3 in
(1026 mb)
ESE 3.5 mph
(ESE 6 kph)
- 10SM
18:55
Clear
48°F / 9°C 25°F / -4°C 40% 30.3 in
(1026 mb)
E 4.6 mph
(E 7 kph)
- 10SM
18:35
Clear
50°F / 10°C 25°F / -4°C 37% 30.3 in
(1026 mb)
E 4.6 mph
(E 7 kph)
- 10SM
18:15
Clear
52°F / 11°C 27°F / -3°C 38% 30.3 in
(1026 mb)
ESE 4.6 mph
(ESE 7 kph)
- 10SM
17:55
Clear
52°F / 11°C 23°F / -5°C 32% 30.3 in
(1026 mb)
E 4.6 mph
(E 7 kph)
- 10SM
17:35
Clear
54°F / 12°C 23°F / -5°C 30% 30.3 in
(1026 mb)
E 4.6 mph
(E 7 kph)
- 10SM
17:15
Clear
54°F / 12°C 25°F / -4°C 33% 30.3 in
(1026 mb)
Calm - 10SM
16:55
Clear
55°F / 13°C 23°F / -5°C 28% 30.3 in
(1026 mb)
E 3.5 mph
(E 6 kph)
- 10SM
16:35
Clear
54°F / 12°C 23°F / -5°C 30% 30.3 in
(1026 mb)
Calm - 10SM
16:15
Clear
54°F / 12°C 25°F / -4°C 33% 30.3 in
(1026 mb)
Calm - 10SM
15:55
Clear
54°F / 12°C 23°F / -5°C 30% 30.3 in
(1026 mb)
Calm - 10SM
15:35
Clear
54°F / 12°C 23°F / -5°C 30% 30.3 in
(1026 mb)
Calm - 10SM
15:15
Clear
54°F / 12°C 25°F / -4°C 33% 30.33 in
(1027 mb)
NE 5.8 mph
(NE 9 kph)
- 10SM
14:55
Clear
54°F / 12°C 23°F / -5°C 30% 30.33 in
(1027 mb)
Calm - 10SM
14:35
Clear
54°F / 12°C 25°F / -4°C 33% 30.33 in
(1027 mb)
Calm - 10SM
14:15
Clear
52°F / 11°C 25°F / -4°C 35% 30.33 in
(1027 mb)
Calm - 10SM
13:55
Clear
52°F / 11°C 23°F / -5°C 32% 30.33 in
(1027 mb)
Calm - 10SM
13:35
Clear
52°F / 11°C 25°F / -4°C 35% 30.33 in
(1027 mb)
SE 5.8 mph
(SE 9 kph)
- 10SM
13:15
Clear
52°F / 11°C 23°F / -5°C 32% 30.33 in
(1027 mb)
Calm - 10SM
12:55
Clear
50°F / 10°C 23°F / -5°C 35% 30.33 in
(1027 mb)
Calm - 10SM
12:35
Clear
48°F / 9°C 25°F / -4°C 40% 30.33 in
(1027 mb)
Calm - 10SM
12:15
Clear
48°F / 9°C 25°F / -4°C 40% 30.36 in
(1028 mb)
Calm - 10SM
11:55
Clear
48°F / 9°C 25°F / -4°C 40% 30.36 in
(1028 mb)
Calm - 10SM
11:35
Clear
46°F / 8°C 27°F / -3°C 46% 30.36 in
(1028 mb)
Calm - 10SM
11:15
Clear
46°F / 8°C 28°F / -2°C 50% 30.36 in
(1028 mb)
E 5.8 mph
(E 9 kph)
- 10SM
10:55
Clear
45°F / 7°C 25°F / -4°C 46% 30.36 in
(1028 mb)
NNW 3.5 mph
(NNW 6 kph)
- 10SM
10:35
Clear
45°F / 7°C 27°F / -3°C 49% 30.36 in
(1028 mb)
NE 8.1 mph
(NE 13 kph)
- 10SM
10:15
Clear
43°F / 6°C 27°F / -3°C 53% 30.36 in
(1028 mb)
ENE 5.8 mph
(ENE 9 kph)
- 10SM
09:55
Clear
43°F / 6°C 28°F / -2°C 57% 30.39 in
(1029 mb)
NE 4.6 mph
(NE 7 kph)
- 10SM
09:35
Clear
41°F / 5°C 28°F / -2°C 61% 30.39 in
(1029 mb)
N 4.6 mph
(N 7 kph)
- 10SM
09:15
Clear
41°F / 5°C 27°F / -3°C 57% 30.39 in
(1029 mb)
N 6.9 mph
(N 11 kph)
- 10SM
08:55
Clear
39°F / 4°C 27°F / -3°C 61% 30.36 in
(1028 mb)
NE 4.6 mph
(NE 7 kph)
- 10SM
08:35
Clear
39°F / 4°C 28°F / -2°C 65% 30.36 in
(1028 mb)
NE 3.5 mph
(NE 6 kph)
- 10SM
08:15
Clear
37°F / 3°C 28°F / -2°C 70% 30.36 in
(1028 mb)
N 5.8 mph
(N 9 kph)
- 10SM
07:55
Clear
36°F / 2°C 28°F / -2°C 75% 30.36 in
(1028 mb)
Calm - 10SM
07:35
Clear
36°F / 2°C 28°F / -2°C 75% 30.36 in
(1028 mb)
NNW 4.6 mph
(NNW 7 kph)
- 10SM
07:15
Clear
36°F / 2°C 28°F / -2°C 75% 30.36 in
(1028 mb)
N 4.6 mph
(N 7 kph)
- 10SM
06:55
Clear
34°F / 1°C 28°F / -2°C 81% 30.36 in
(1028 mb)
N 5.8 mph
(N 9 kph)
- 10SM
06:35
Clear
34°F / 1°C 28°F / -2°C 81% 30.36 in
(1028 mb)
N 3.5 mph
(N 6 kph)
- 10SM
06:15
Clear
32°F / 0°C 28°F / -2°C 87% 30.36 in
(1028 mb)
Calm - 10SM
05:55
Partly Cloudy
32°F / 0°C 27°F / -3°C 80% 30.33 in
(1027 mb)
Calm - 10SM
05:35
Partly Cloudy
32°F / 0°C 28°F / -2°C 87% 30.33 in
(1027 mb)
Calm - 10SM
05:15
Overcast
32°F / 0°C 28°F / -2°C 87% 30.33 in
(1027 mb)
N 4.6 mph
(N 7 kph)
- 10SM
04:55
Overcast
30°F / -1°C 28°F / -2°C 93% 30.33 in
(1027 mb)
Calm - 10SM
04:35
Overcast
28°F / -2°C 28°F / -2°C 100% 30.33 in
(1027 mb)
Calm - 10SM
04:15
Overcast
28°F / -2°C 27°F / -3°C 93% 30.33 in
(1027 mb)
Calm - 7SM
03:55
Mostly Cloudy
Fog And Mist
28°F / -2°C 27°F / -3°C 93% 30.33 in
(1027 mb)
Calm - 4SM
03:35
Clear
Fog And Mist
28°F / -2°C 27°F / -3°C 93% 30.3 in
(1026 mb)
Calm - 5SM
03:15
Clear
28°F / -2°C 27°F / -3°C 93% 30.3 in
(1026 mb)
Calm - 7SM
02:55
Clear
28°F / -2°C 27°F / -3°C 93% 30.3 in
(1026 mb)
Calm - 7SM
02:35
Clear
28°F / -2°C 27°F / -3°C 93% 30.3 in
(1026 mb)
Calm - 7SM
02:15
Clear
28°F / -2°C 28°F / -2°C 100% 30.3 in
(1026 mb)
Calm - 7SM
01:55
Clear
28°F / -2°C 28°F / -2°C 100% 30.3 in
(1026 mb)
Calm - 7SM
01:35
Clear
Fog And Mist
28°F / -2°C 27°F / -3°C 93% 30.3 in
(1026 mb)
Calm - 5SM
01:15
Clear
Fog And Mist
28°F / -2°C 27°F / -3°C 93% 30.3 in
(1026 mb)
Calm - 5SM
00:55
Clear
28°F / -2°C 28°F / -2°C 100% 30.3 in
(1026 mb)
Calm - 7SM
00:35
Clear
28°F / -2°C 27°F / -3°C 93% 30.3 in
(1026 mb)
Calm - 10SM
00:15
Clear
30°F / -1°C 28°F / -2°C 93% 30.3 in
(1026 mb)
Calm - 10SM
Time Weather Temperature Dewpoint Humidity Pressure Winds Precip Visibility


Weather for websites

WeatherForYou.com, LLC is not responsible for any damages or problems caused by this service. Current weather conditions are obtained from the closest station including government and personal stations which may have varying degrees of accuracy. Weather forecasts are derived from the NOAA NDFD. Like all things, this site belongs to Jesus Christ... He just trusts me to maintain it. If you have any questions or comments email webmaster@weatherforyou.com

Copyright © 2014, WeatherForYou.com LLC. All rights reserved.